Powrót do katalogu

STARLINK-34780

AktywnyŁącznośćSSO
NORAD 65074·PAYLOAD·🇺🇸 United States

Wystrzelony Jul 31, 2025 z Vandenberg Space Force Base

Loading…

Następne Przeloty (najbliższe 24 godziny)

TLE

ŚwieżeSource: CelesTrak SupGP

Epoka: Sep 14, 2026, 21:13 UTC

1 65074C 25165U   26257.88451389  .02114800  00000+0  74299-1 0  2573
2 65074  97.2844 329.1585 0001799  87.0523 251.1333 15.28383500    16

Śledź STARLINK-34780 w czasie rzeczywistym z AllMySat

Download on the App Store